Location: Gouy
(50.0008°N, 3.2556°E)
Time: 14:16:54
(UTC+00:00)

CZ-6A DEB - Visible Passes

Search period start: 04 October 2024 00:00
Search period end: 14 October 2024 00:00
Orbit: 610 x 721 km, 98.7° (Epoch: 04 October)

Date Brightness Start Highest point End Pass type
(mag) Time Alt. Az. Time Alt. Az. Time Alt. Az.
04 Oct ? 18:32:35 16° SE 18:35:36 37° ENE 18:39:42 10° N visible
04 Oct ? 20:10:42 20° SW 20:12:38 28° W 20:16:27 10° NW visible
05 Oct ? 19:04:13 27° SSE 19:06:32 70° ENE 19:10:59 10° N visible
05 Oct ? 20:42:19 12° WSW 20:44:00 15° W 20:46:32 10° NW visible
06 Oct ? 17:57:48 10° ESE 18:00:55 19° ENE 18:04:05 10° NNE visible
06 Oct ? 19:35:37 33° S 19:37:24 60° WSW 19:41:50 10° NNW visible
07 Oct ? 18:28:45 18° ESE 18:31:17 33° ENE 18:35:19 10° N visible
07 Oct ? 20:06:49 26° SW 20:08:12 31° W 20:12:12 10° NNW visible
08 Oct ? 18:59:45 33° SE 19:01:35 62° ENE 19:06:03 10° N visible
08 Oct ? 20:37:49 16° WSW 20:38:56 17° W 20:41:52 10° NW visible
09 Oct ? 17:52:34 10° E 17:55:28 18° ENE 17:58:27 10° NNE visible
09 Oct ? 19:30:33 44° S 19:31:50 70° WSW 19:36:20 10° NNW visible
10 Oct ? 18:23:07 20° ESE 18:25:14 30° ENE 18:29:09 10° N visible
10 Oct ? 20:01:09 33° WSW 20:02:00 36° W 20:06:11 10° NNW visible
11 Oct ? 18:53:31 37° ESE 18:54:54 53° ENE 18:59:20 10° N visible
11 Oct ? 20:31:31 20° WSW 20:32:06 20° W 20:35:26 10° NW visible
12 Oct ? 17:45:43 10° E 17:48:19 15° NE 17:50:57 10° NNE visible
12 Oct ? 19:23:42 59° S 19:24:31 84° WSW 19:29:05 10° NNW visible
12 Oct ? 21:01:42 11° W 21:02:08 11° W 21:03:14 10° WNW visible
13 Oct ? 18:15:42 20° E 18:17:26 25° ENE 18:21:11 10° N visible
13 Oct ? 19:53:41 43° WSW 19:54:02 44° W 19:58:24 10° NNW visible
